Location: Arborea
(39.7744°N, 8.5819°E)
Time: 04:16:27
(UTC+00:00)

SL-16 R/B - Pass Details

Date: 24 October 2021
Orbit: 842 x 846 km, 71.0° (Epoch: 29 November)

Event Time Altitude Azimuth Distance (km) Brightness Sun altitude
Rises 17:49:56 0° 214° (SW) 3,386 5.9 -15.3°
Reaches altitude 10° 17:52:26 10° 219° (SW) 2,455 5.2 -15.8°
Maximum altitude 17:57:57 54° 297° (WNW) 1,015 2.9 -16.8°
Drops below altitude 10° 18:03:30 10° 14° (NNE) 2,472 4.5 -17.9°
Sets 18:06:01 0° 19° (NNE) 3,412 5.2 -18.4°
